Погода в Эдирне

Турция     41°40′29″N   26°33′20″E
темп.,
°C
ветер,
м/с
пор.,
м/с
влажн.,
%
обл.,
%
осадки,
мм/ч
давл.,
гПа
погр.,
м
18 апреля, вс
вс1800:00+5с238259 0.0 101547
03:00+7с1172100 0.0 101577
06:00+8с1172100 0.0 101552
09:00+9в117360 0.0 1015324
12:00+12ю1272100 0.0 1015594
15:00+14ю2375100 0.0 1015639
18:00+14в1181100 0.0 1014288
21:00+11ссв2292100 0.0 101518
19 апреля, пн
пн1900:00+11ссв2391100 0.0 101549
03:00+11ссв3489100 0.0 1014146
06:00+11ссв2290100 0.1 101391
09:00+10св2496100 3.4 1013221
12:00+12в3490100 0.9 1012457
15:00+11с2390100 2.1 1010405
18:00+10с4793100 1.2 1009361
21:00+9сз4693100 1.3 1009464
20 апреля, вт
вт2000:00+8сз3791100 0.1 1008298
03:00+7зсз3694100 0.7 1008326
06:00+7зсз2693100 1.1 1009293
09:00+8зсз4891100 2.9 1011439
12:00+13зсз456890 0.0 10121293
15:00+15з475983 0.2 10121647
18:00+14ю336970 0.4 1013880
21:00+10юв228974 2.0 101542
21 апреля, ср
ср2100:00+8в119277 0.1 101613
03:00+6всв219416 0.1 101613
06:00+6св119449 0.1 101712
09:00+10сз01845 0.1 1018250
12:00+15зюз11665 0.6 1018733
15:00+17зюз235180 1.2 10171744
18:00+16ююз2265100 0.6 1017198
21:00+11св11772 0.8 101910
22 апреля, чт
чт2200:00+9всв11830 0.0 102011
03:00+8всв11865 0.0 102110
06:00+7св119046 0.0 102110
09:00+12вюв11825 0.0 1022239
12:00+16юв22645 0.0 1022819
15:00+19ююв3452100 0.0 10211461
18:00+19юв23595 0.0 10201633
21:00+12вюв33805 0.1 102129